Preview of NWS' New Version of Forecast
This preview is not operational and should not be used for support decisions.

Regional Weather Roundup (RWR)

Issued by National Weather Service (NWS)

                            
000
ASUS46 KPQR 240010
RWROR 

OREGON REGIONAL WEATHER ROUNDUP
NATIONAL WEATHER SERVICE PORTLAND OR
500 PM PDT SUN JUN 23 2019

NOTE: "FAIR" INDICATES FEW OR NO CLOUDS BELOW 12,000 FEET WITH
NO SIGNIFICANT WEATHER AND/OR OBSTRUCTIONS TO VISIBILITY.

ORZ001>013-240100-
NORTHWEST OREGON

  
CITY           SKY/WX    TMP DP  RH WIND       PRES   REMARKS
ASTORIA        CLOUDY    59  49  69 NW7       30.22S                  
6HR MIN TEMP:  56; 6HR MAX TEMP:  61; 6HR PCP:  0.01;                

TILLAMOOK      PTSUNNY   63  50  63 W14       30.23F                  
PORTLAND       PTSUNNY   69  47  45 NW8       30.16F                  
6HR MIN TEMP:  61; 6HR MAX TEMP:  70;                                

VANCOUVER WA   CLOUDY    69  46  43 NW7       30.16F                  
6HR MIN TEMP:  60; 6HR MAX TEMP:  69;                                

SCAPPOOSE      CLOUDY    67  50  54 NW7       30.16F                  
6HR MIN TEMP:  61; 6HR MAX TEMP:  70;                                

HILLSBORO      CLOUDY    68  48  48 VRB6      30.16F                  
6HR MIN TEMP:  61; 6HR MAX TEMP:  71;                                

AURORA         CLOUDY    68  47  46 NW7       30.17F                  
6HR MIN TEMP:  62; 6HR MAX TEMP:  70;                                

MCMINNVILLE    CLOUDY    69  48  47 N8        30.15F                  
6HR MIN TEMP:  61; 6HR MAX TEMP:  71;                                

SALEM          MOSUNNY   70  47  43 NW8       30.14F                  
6HR MIN TEMP:  62; 6HR MAX TEMP:  73;                                

CORVALLIS      SUNNY     72  47  40 N12       30.15F                  
EUGENE         PTSUNNY   74  49  41 NE9       30.13F                  
6HR MIN TEMP:  64; 6HR MAX TEMP:  78;                                

$$

ORZ021-028-240100-
SOUTHWEST OREGON

  
CITY           SKY/WX    TMP DP  RH WIND       PRES   REMARKS
NORTH BEND     SUNNY     62  52  69 N20G29    30.21S                  
6HR MIN TEMP:  60; 6HR MAX TEMP:  64;                                

BROOKINGS      SUNNY     75  51  43 NW17G24   30.03F                  
ROSEBURG       SUNNY     81  43  26 N10       30.10F                  
6HR MIN TEMP:  62; 6HR MAX TEMP:  82;                                

SEXTON SUMMIT  SUNNY     69  40  34 VRB3      30.18F                  
6HR MIN TEMP:  62; 6HR MAX TEMP:  71;                                

GRANTS PASS    FAIR      82  39  21 N10       30.09F                  
MEDFORD        SUNNY     85  36  17 N14G22    30.04F                  
6HR MIN TEMP:  71; 6HR MAX TEMP:  85;                                

$$

ORZ014>016-041-240100-
COLUMBIA GORGE

  
CITY           SKY/WX    TMP DP  RH WIND       PRES   REMARKS
TROUTDALE      PTSUNNY   68  48  48 VRB3      30.16F                  
6HR MIN TEMP:  61; 6HR MAX TEMP:  70;                                

HOOD RIVER     MOSUNNY   68  41  37 SW6       30.13F                  
THE DALLES     SUNNY     71  43  36 W26G39    30.07S                  
6HR MIN TEMP:  67; 6HR MAX TEMP:  72;                                

$$

ORZ029>031-041-044-049-050-061>064-502-503-505>511-240100-
EASTERN OREGON

  
CITY           SKY/WX    TMP DP  RH WIND       PRES   REMARKS
MADRAS         SUNNY     70  41  35 NW17      30.08F                  
REDMOND        MOSUNNY   74  38  27 NW16G25   30.07F                  
6HR MIN TEMP:  66; 6HR MAX TEMP:  76;                                

BEND           SUNNY     73  37  27 NW17G24   30.08S                  
PRINEVILLE     MOSUNNY   70  37  30 NW15G23   30.07S                  
KLAMATH FALLS  SUNNY     77  35  21 NW16G25   30.09F                  
6HR MIN TEMP:  67; 6HR MAX TEMP:  79;                                

LAKEVIEW       SUNNY     76  33  21 MISG      30.09F                  
HERMISTON      SUNNY     79  43  27 W18G26    29.95F                  
6HR MIN TEMP:  72; 6HR MAX TEMP:  80;                                

PENDLETON      MOSUNNY   76  41  28 W15G22    29.97F                  
6HR MIN TEMP:  68; 6HR MAX TEMP:  78;                                

JOHN DAY       SUNNY     71  35  26 W18G25    30.05S                  
MEACHAM        MOSUNNY   65  36  34 VRB7      30.05F                  
6HR MIN TEMP:  53; 6HR MAX TEMP:  65;                                

LA GRANDE      PTSUNNY   65  42  43 CALM      30.03F                  
6HR MIN TEMP:  60; 6HR MAX TEMP:  68;                                

BAKER CITY     SUNNY     68  44  42 NW13      30.03S                  
6HR MIN TEMP:  63; 6HR MAX TEMP:  72;                                

BURNS          SUNNY     73  29  19 W15G28    30.05S                  
6HR MIN TEMP:  66; 6HR MAX TEMP:  75; 6HR PCP: TRACE;                

ROME             N/A     79  25  13 VRB5G16   30.00F                  
6HR MIN TEMP:  72; 6HR MAX TEMP:  81;                                

ONTARIO        SUNNY     81  38  21 N8        29.95F                  
6HR MIN TEMP:  74; 6HR MAX TEMP:  82;                                

$$